"Time","Temp","Dewpoint","Humidity","Pressure","Direction","Speed","Gust","Precip","PrecipRate"
"00:04:59","55.6","43.2","63","30.07","102","1.3","3.5","0.00","0.00"
"00:09:57","55.7","43.2","62.7","30.07","103","0.7","2.3","0.00","0.00"
"00:14:58","55.7","43.3","63","30.07","103","0.2","1.2","0.00","0.00"
"00:19:56","55.5","43.1","63","30.07","103","0.1","1.2","0.00","0.00"
"00:24:58","55.3","42.9","63","30.07","103","0","1.2","0.00","0.00"
"00:29:56","55","42.6","63","30.07","103","0.4","2.3","0.00","0.00"
"00:34:58","54.9","42.9","64","30.07","103","0.2","1.2","0.00","0.00"
"00:39:57","54.7","42.8","64","30.07","103","0.1","2.3","0.00","0.00"
"00:44:59","54.3","42.7","64.8","30.07","103","0","0","0.00","0.00"
"00:49:57","53.9","42.5","65.1","30.06","103","0.1","1.2","0.00","0.00"
"00:54:59","53.8","42.7","66","30.06","103","0","1.2","0.00","0.00"
"00:59:57","53.6","42.7","66.4","30.06","103","0","0","0.00","0.00"
"01:04:59","53.4","42.9","67.5","30.06","103","0","0","0.00","0.00"
"01:09:57","52.9","42.9","68.6","30.06","103","0","0","0.00","0.00"
"01:14:56","52.6","42.6","68.8","30.06","103","0","0","0.00","0.00"
"01:19:58","52.4","42.7","69.6","30.06","103","0","0","0.00","0.00"
"01:24:56","52.2","43.1","71","30.06","103","0","0","0.00","0.00"
"01:29:59","51.9","43.2","71.9","30.06","103","0","0","0.00","0.00"
"01:34:57","51.6","42.9","71.9","30.06","103","0","0","0.00","0.00"
"01:39:59","51.6","43","72.1","30.06","103","0.1","2.3","0.00","0.00"
"01:44:58","51.6","43.2","72.8","30.06","103","0","1.2","0.00","0.00"
"01:49:59","51.7","43","72.2","30.06","103","0","0","0.00","0.00"
"01:54:57","51.8","42.8","71.2","30.06","103","0","0","0.00","0.00"
"01:59:59","52","43.3","71.9","30.06","103","0","0","0.00","0.00"
"02:04:56","52.2","43.4","72","30.06","103","0.1","2","0.00","0.00"
"02:09:59","52.4","43","70.3","30.06","103","0.4","2.3","0.00","0.00"
"02:14:57","52.7","43.8","71.5","30.06","103","0","1.2","0.00","0.00"
"02:19:59","52.8","43.9","71.8","30.06","103","0","0","0.00","0.00"
"02:24:57","52.7","43.9","72","30.06","103","0","0","0.00","0.00"
"02:29:58","52.6","44.3","73.3","30.06","103","0","0","0.00","0.00"
"02:34:56","52.3","44.1","73.4","30.05","103","0","0","0.00","0.00"
"02:39:58","52","43.9","73.6","30.05","103","0.4","2.3","0.00","0.00"
"02:44:56","51.7","43.3","73","30.05","103","0","1.2","0.00","0.00"
"02:49:58","51.4","43.4","74.2","30.05","103","0","1.2","0.00","0.00"
"02:54:56","51.3","44","76.1","30.05","103","0","0","0.00","0.00"
"02:59:58","51.1","44.5","78","30.05","103","0","0","0.00","0.00"
"03:04:56","51","45.3","80.8","30.05","103","0.2","1.2","0.00","0.00"
"03:09:58","51","46.1","83.2","30.05","101","0.9","2.3","0.00","0.00"
"03:14:57","50.9","46.2","84","30.05","101","0.6","2.3","0.00","0.00"
"03:19:59","50.8","46.5","85","30.04","102","0","0","0.01","0.01"
"03:24:57","50.6","46.6","86","30.04","102","0","0","0.01","0.01"
"03:29:58","50.3","46.5","86.6","30.04","102","0","0","0.01","0.01"
"03:34:56","50.1","46.5","87.1","30.04","102","0","0","0.01","0.01"
"03:39:58","50","46.6","87.9","30.04","102","0.1","2","0.01","0.01"
"03:44:56","50","46.8","88.7","30.04","101","0.8","2.3","0.01","0.01"
"03:49:58","50.1","47","89","30.02","101","0.1","1.2","0.02","0.02"
"03:54:56","50","46.9","89","30.02","102","0","1.2","0.02","0.02"
"03:59:58","49.9","46.8","89.1","30.02","102","0","0","0.02","0.02"
"04:04:59","49.7","46.9","90","30.02","101","0","1","0.02","0.02"
"04:09:57","49.7","47.1","90.6","30.02","101","0.1","1.2","0.02","0.02"
"04:14:56","49.8","47.3","91","30.02","101","0.2","1.2","0.02","0.02"
"04:19:58","49.8","47.3","91","30.01","101","0.5","1.2","0.02","0.02"
"04:24:56","49.9","47.4","91","30.01","102","0","0","0.02","0.01"
"04:29:58","49.9","47.4","91","30.01","101","0","1","0.02","0.01"
"04:34:57","49.9","47.6","91.7","30.01","101","0","1.2","0.03","0.01"
"04:39:59","49.9","47.7","92","30.01","59","0.5","2.3","0.03","0.02"
"04:44:57","49.9","47.7","92","30.01","48","1","3.5","0.03","0.02"
"04:49:59","49.9","48","92.9","30.00","41","0.4","2.3","0.03","0.02"
"04:54:56","49.8","47.9","92.9","30.00","41","0.3","2.3","0.03","0.01"
"04:59:58","49.8","47.7","92.5","30.00","41","0.1","1.2","0.04","0.02"
"05:04:56","49.7","47.6","92.4","29.99","40","0.3","2.3","0.04","0.02"
"05:09:58","49.7","47.8","93","29.99","40","0.1","1.2","0.04","0.02"
"05:14:57","49.7","47.8","93","29.99","40","0","1","0.04","0.02"
"05:19:58","49.7","47.8","93","29.99","40","0.1","1.2","0.04","0.02"
"05:24:56","49.7","47.8","93","29.99","39","0.1","3","0.04","0.02"
"05:29:58","49.7","47.8","93","29.99","38","0.5","3.5","0.04","0.02"
"05:34:56","49.7","47.8","93","29.99","11","0.3","3","0.04","0.02"
"05:39:58","49.7","47.8","93","29.99","5","0.5","2.3","0.04","0.01"
"05:44:56","49.6","47.7","93","29.99","5","0.4","2.3","0.04","0.01"
"05:49:58","49.6","47.8","93.6","29.99","5","0.4","2.3","0.04","0.01"
"05:54:56","49.6","47.9","94","29.99","5","0.1","2","0.04","0.01"
"05:59:58","49.6","47.9","94","29.99","5","0.2","2.3","0.04","0.01"
"06:04:59","49.6","47.9","94","29.99","5","0.1","2.3","0.04","0.00"
"06:09:59","49.6","47.9","94","29.99","5","0.7","3","0.04","0.00"
"06:14:57","49.6","47.9","94","30.00","5","1.1","3.5","0.04","0.00"
"06:19:59","49.6","47.9","94","30.00","6","1.1","2.3","0.04","0.00"
"06:24:57","49.6","47.9","94","30.00","11","1.1","3.5","0.04","0.00"
"06:29:59","49.6","47.9","94","30.00","0","1.2","4","0.04","0.00"
"06:34:57","49.5","47.8","94","30.00","357","0.9","3.5","0.04","0.00"
"06:39:59","49.5","47.8","94","30.00","355","0.5","2","0.04","0.00"
"06:44:57","49.4","47.7","94","30.00","355","0.8","4","0.04","0.00"
"06:49:59","49.3","47.6","94","30.00","354","1.3","4","0.04","0.00"
"06:54:58","49.2","47.5","94","30.00","355","0.3","3.5","0.04","0.00"
"06:59:56","49.1","47.4","94","30.00","355","0","1.2","0.04","0.00"
"07:04:57","49.1","47.4","94","29.99","355","1.2","3.5","0.04","0.00"
"07:09:59","49","47.3","94","29.99","355","1.1","2.3","0.04","0.00"
"07:14:57","48.9","47.2","94","29.99","336","1.5","4","0.04","0.00"
"07:19:59","48.8","47.2","94","29.98","328","0.5","3.5","0.04","0.00"
"07:24:58","48.8","47.2","94","29.98","328","0.5","2.3","0.04","0.00"
"07:29:56","48.7","47.1","94","29.99","328","0.1","2.3","0.04","0.00"
"07:34:59","48.7","47.1","94","29.99","328","0.1","1.2","0.04","0.00"
"07:39:58","48.7","47.1","94","29.99","328","0.9","4","0.04","0.00"
"07:44:57","48.7","47.1","94","29.99","329","0.7","3.5","0.04","0.00"
"07:49:59","48.7","47.1","94","29.99","329","0.8","3.5","0.04","0.00"
"07:54:57","48.8","47.4","95","29.99","329","0.6","2.3","0.04","0.00"
"07:59:59","48.8","47.4","95","29.99","329","0.1","3","0.04","0.00"
"08:04:56","48.9","47.5","95","29.99","329","0.6","4","0.05","0.01"
"08:09:58","49","47.6","95","29.99","329","0.2","2.3","0.05","0.01"
"08:14:56","49.1","47.7","95","29.99","329","0.8","3.5","0.05","0.01"
"08:19:57","49.3","47.9","95","29.99","328","1.3","3.5","0.05","0.01"
"08:24:59","49.6","48.2","95","29.99","343","2.3","5","0.05","0.01"
"08:29:56","49.7","48.3","95","29.99","349","1.8","5","0.05","0.01"
"08:34:58","49.9","48.4","94.8","29.98","339","2.4","9","0.05","0.01"
"08:39:56","49.9","48.3","94.2","29.98","347","2.4","9.2","0.05","0.01"
"08:44:57","49.9","48.2","94","29.98","346","0.9","4","0.05","0.01"
"08:49:59","50","48.2","93.4","29.98","327","0.8","3.5","0.05","0.01"
"08:54:57","50","48.1","93","29.98","342","2","5","0.05","0.01"
"08:59:58","50.1","48.2","93","29.99","341","1.3","5","0.05","0.01"
"09:04:59","50.2","48.3","93","29.99","336","0.8","3.5","0.05","0.01"
"09:09:57","50.2","48.3","93","29.99","336","0.9","4","0.05","0.00"
"09:14:56","50.3","48.4","93","29.99","338","1.2","5","0.05","0.00"
"09:19:57","50.4","48.5","93","29.98","339","1.1","3.5","0.05","0.00"
"09:24:59","50.5","48.6","93","29.98","342","1","3.5","0.05","0.00"
"09:29:56","50.6","48.7","93","29.98","342","1.3","3.5","0.05","0.00"
"09:34:58","50.7","48.7","93","29.98","341","1.2","4","0.05","0.00"
"09:39:56","50.8","48.8","92.7","29.98","331","1.8","4","0.05","0.00"
"09:44:57","50.9","48.7","92","29.98","340","1.8","5","0.05","0.00"
"09:49:58","51.1","49","92.4","29.98","341","2","5","0.05","0.00"
"09:54:59","51.3","48.9","91.6","29.98","342","1.5","7","0.05","0.00"
"09:59:57","51.3","48.8","91","29.98","347","2.9","9.2","0.05","0.00"
"10:04:58","51.5","49.1","91.4","29.98","344","1.6","4.6","0.05","0.00"
"10:09:56","51.7","49.2","91.2","29.98","344","2.6","5","0.05","0.00"
"10:14:58","51.8","49.3","91","29.98","347","2.1","6","0.05","0.00"
"10:19:59","51.8","49.1","90.4","29.98","345","3.9","10.4","0.05","0.00"
"10:24:57","51.9","49.1","90.1","29.98","343","1.9","5.8","0.05","0.00"
"10:29:58","52","49.2","90.3","29.98","332","2.5","6","0.05","0.00"
"10:34:56","52.1","49.3","90.2","29.98","343","1.6","4","0.05","0.00"
"10:39:58","52.2","49.5","90.3","29.98","334","2.7","6","0.05","0.00"
"10:44:59","52.3","49.5","90","29.98","355","2.2","6","0.05","0.00"
"10:49:57","52.4","49.6","90","29.98","346","3.2","9.2","0.05","0.00"
"10:54:58","52.5","49.7","90","29.98","346","2.6","6","0.05","0.00"
"10:59:56","52.6","49.8","90.2","29.98","346","2.2","5","0.05","0.00"
"11:04:57","52.8","49.9","90","29.98","349","1.9","5","0.05","0.00"
"11:09:59","53","50","90","29.98","336","2.8","6","0.05","0.00"
"11:14:57","53","49.8","89","29.98","331","3.3","7","0.05","0.00"
"11:19:58","53.1","50","89.1","29.97","333","2.4","5","0.05","0.00"
"11:24:59","53.2","50","89","29.97","335","3.3","7","0.05","0.00"
"11:29:57","53.3","50.1","89","29.98","339","2","6","0.05","0.00"
"11:34:58","53.3","50","88.7","29.98","339","3.3","8.1","0.05","0.00"
"11:39:56","53.3","50.1","88.9","29.98","347","2","6","0.05","0.00"
"11:44:57","53.3","50.1","89","29.98","344","3","7","0.05","0.00"
"11:49:59","53.4","50.2","89","29.97","350","1.9","6","0.05","0.00"
"11:54:56","53.5","50.3","89","29.97","336","3.7","10","0.05","0.00"
"11:59:57","53.7","50.5","89","29.97","340","3.4","10.4","0.05","0.00"
"12:04:59","53.8","50.5","88.9","29.97","345","4.1","11.5","0.05","0.00"
"12:09:57","53.9","50.7","88.9","29.97","338","3.9","11.5","0.05","0.00"
"12:14:59","54","50.6","88.4","29.97","355","2.8","7","0.05","0.00"
"12:19:56","54.1","50.6","88","29.96","346","4","7","0.05","0.00"
"12:24:58","54.2","50.7","88","29.96","346","3.9","9.2","0.05","0.00"
"12:29:59","54.3","50.8","88","29.96","344","3.5","10.4","0.05","0.00"
"12:34:56","54.4","50.9","88","29.96","350","4.2","10.4","0.05","0.00"
"12:39:59","54.5","51","87.8","29.96","338","4.1","10","0.05","0.00"
"12:44:56","54.6","50.8","87.1","29.96","329","3.5","10.4","0.05","0.00"
"12:49:57","54.7","51.1","87.6","29.95","332","3.1","9.2","0.05","0.00"
"12:54:59","54.8","51","87","29.95","329","2.4","6.9","0.05","0.00"
"12:59:57","54.9","51.3","87.7","29.95","340","2","4","0.05","0.00"
"13:04:58","55","51.4","87.7","29.95","342","3.2","8.1","0.05","0.00"
"13:09:56","55","51.3","87.2","29.95","344","3","8","0.05","0.00"
"13:14:59","55.1","51.3","87","29.95","347","2.6","7","0.05","0.00"
"13:19:57","55.3","51.5","87","29.95","335","3.6","10.4","0.05","0.00"
"13:24:58","55.5","51.7","87","29.95","343","3.2","7","0.05","0.00"
"13:29:56","55.6","51.8","87","29.95","355","3.5","7","0.05","0.00"
"13:34:57","55.6","51.7","86.5","29.95","340","3.8","9.2","0.05","0.00"
"13:39:59","55.7","51.6","86.1","29.95","334","4.3","12","0.05","0.00"
"13:44:57","55.8","51.7","86","29.95","339","4.4","10.4","0.05","0.00"
"13:49:58","55.8","51.7","86","29.95","345","4.9","11","0.05","0.00"
"13:54:56","55.9","51.8","86","29.95","351","4","11.5","0.05","0.00"
"13:59:57","55.9","51.8","86","29.95","342","3.5","9.2","0.05","0.00"
"14:04:58","56","51.9","86","29.94","337","3.6","6","0.05","0.00"
"14:09:56","56.2","52.1","86","29.94","337","3.1","7","0.05","0.00"
"14:14:58","56.3","51.9","85.2","29.94","326","3.4","9","0.05","0.00"
"14:19:56","56.4","52.3","85.8","29.93","334","3.6","10.4","0.05","0.00"
"14:24:57","56.6","52.4","85.8","29.93","334","3","10.4","0.05","0.00"
"14:29:58","56.7","52.3","85.2","29.93","347","4.2","12","0.05","0.00"
"14:34:56","56.8","52.4","85.2","29.92","355","3.6","11.5","0.05","0.00"
"14:39:58","57","52.5","85","29.92","335","4.3","11.5","0.05","0.00"
"14:44:59","57.1","52.6","85","29.92","338","5.6","13","0.05","0.00"
"14:49:56","57.3","52.8","85","29.92","318","2.4","10.4","0.05","0.00"
"14:54:58","57.5","52.9","84.7","29.92","336","5","11","0.05","0.00"
"14:59:59","57.7","53","84.2","29.92","350","3.3","11.5","0.05","0.00"
"15:04:56","57.9","53.1","84","29.91","350","3.7","11.5","0.05","0.00"
"15:09:58","58.1","53.2","83.8","29.91","350","3","10.4","0.05","0.00"
"15:14:56","58.2","53.2","83.5","29.91","338","3","9","0.05","0.00"
"15:19:57","58.2","53.3","83.5","29.90","338","1.6","9.2","0.05","0.00"
"15:24:58","58.4","53.4","83.5","29.90","346","2.7","7","0.05","0.00"
"15:29:56","58.5","53.5","83.2","29.90","347","3.1","6.9","0.05","0.00"
"15:34:57","58.7","53.5","83","29.90","338","3.3","7","0.05","0.00"
"15:39:59","58.9","53.7","83","29.90","341","3.7","10","0.05","0.00"
"15:44:57","59","53.8","83","29.90","339","4.7","12","0.05","0.00"
"15:49:58","59.2","54","83.1","29.90","347","5.5","12","0.05","0.00"
"15:54:59","59.3","54.1","83","29.90","341","4.2","10.4","0.05","0.00"
"15:59:57","59.4","54.2","83","29.90","330","5.6","13","0.05","0.00"
"16:04:58","59.4","54.6","84","29.90","333","3.7","10","0.05","0.00"
"16:09:56","59.5","54.7","84","29.90","333","4.7","10.4","0.05","0.00"
"16:14:57","59.6","55","84.9","29.90","344","3.7","10","0.05","0.00"
"16:19:59","59.7","55.2","85","29.90","327","3.9","10.4","0.05","0.00"
"16:24:57","59.8","55.3","85","29.90","341","1.6","4","0.05","0.00"
"16:29:59","60","55.4","84.7","29.90","336","3","9","0.05","0.00"
"16:34:56","60.1","55.2","84","29.90","339","3.7","9.2","0.05","0.00"
"16:39:58","60.1","55.2","84","29.90","325","3.7","11","0.05","0.00"
"16:44:59","60.1","55.2","84","29.90","340","2.9","11.5","0.05","0.00"
"16:49:57","60.2","55.3","84","29.90","333","2.1","5","0.05","0.00"
"16:54:59","60.3","55.4","84","29.90","324","2.7","7","0.05","0.00"
"16:59:56","60.3","55.4","83.8","29.90","339","1.8","5","0.05","0.00"
"17:04:57","60.4","55.4","83.6","29.90","333","2","6","0.05","0.00"
"17:09:59","60.5","55.6","84","29.90","349","2.3","5","0.05","0.00"
"17:14:57","60.8","55.7","83.6","29.90","339","2.9","7","0.05","0.00"
"17:19:58","60.9","55.6","82.8","29.90","348","3.3","9.2","0.05","0.00"
"17:24:57","61","55.8","83","29.90","341","2.7","10.4","0.05","0.00"
"17:29:58","61","55.8","83","29.90","340","2.4","8","0.05","0.00"
"17:34:59","61.1","55.9","83","29.90","337","2.9","8.1","0.05","0.00"
"17:39:57","61.1","55.7","82.3","29.90","334","2.2","5","0.05","0.00"
"17:44:59","61.2","55.9","82.8","29.90","340","1","4.6","0.05","0.00"
"17:49:56","61.2","55.9","82.6","29.90","339","0.3","3.5","0.05","0.00"
"17:54:58","61.3","55.8","82","29.90","336","0.6","2.3","0.05","0.00"
"17:59:56","61.3","55.8","82.3","29.90","336","0.7","3.5","0.05","0.00"
"18:04:57","61.3","56","82.6","29.90","336","0.3","3.5","0.05","0.00"
"18:09:59","61.4","56","82.5","29.90","336","0.7","3.5","0.05","0.00"
"18:14:57","61.4","56.1","82.6","29.91","336","0.9","3.5","0.05","0.00"
"18:19:59","61.6","56","82","29.91","331","1.4","4","0.05","0.00"
"18:24:56","61.8","56.2","82","29.91","327","1.6","4","0.05","0.00"
"18:29:58","62","56.4","82","29.92","327","1.3","3.5","0.05","0.00"
"18:34:59","62.2","56.5","81.4","29.92","327","0.6","3.5","0.05","0.00"
"18:39:57","62.4","56.5","81","29.92","327","0.6","3.5","0.05","0.00"
"18:44:59","62.5","56.6","80.8","29.92","327","0.6","3","0.05","0.00"
"18:49:56","62.6","56.3","80","29.92","327","0.5","3.5","0.05","0.00"
"18:54:58","62.5","56.2","80","29.92","327","0","1.2","0.05","0.00"
"18:59:56","62.4","56.1","80","29.92","327","0","0","0.05","0.00"
"19:04:58","62.2","56","80","29.92","327","0","0","0.05","0.00"
"19:09:56","62","55.8","80","29.92","327","0","0","0.05","0.00"
"19:14:59","61.6","55.6","80.7","29.93","327","0","0","0.05","0.00"
"19:19:57","61.2","55.3","81","29.93","327","0","0","0.05","0.00"
"19:24:56","60.8","55.2","81.8","29.93","327","0","0","0.05","0.00"
"19:29:58","60.3","54.9","82.2","29.94","327","0","0","0.05","0.00"
"19:34:56","59.9","54.7","82.8","29.94","327","0","0","0.05","0.00"
"19:39:59","59.5","54.3","83.1","29.94","327","0","0","0.05","0.00"
"19:44:57","59","54.2","84","29.94","327","0","0","0.05","0.00"
"19:49:59","58.6","53.9","84.5","29.94","327","0","0","0.05","0.00"
"19:54:57","58.1","53.6","85","29.94","327","0","0","0.05","0.00"
"19:59:59","57.6","53.4","85.8","29.94","327","0","0","0.05","0.00"
"20:04:56","57.2","53.4","87","29.94","327","0.1","1.2","0.05","0.00"
"20:09:59","56.9","53.2","87.3","29.94","327","0","0","0.05","0.00"
"20:14:57","56.4","52.5","86.7","29.96","327","0","0","0.05","0.00"
"20:19:59","55.9","52.1","87.2","29.96","327","0","0","0.05","0.00"
"20:24:58","55.4","51.9","88","29.96","327","0","0","0.05","0.00"
"20:29:56","55.1","51.8","88.8","29.96","327","0","1.2","0.05","0.00"
"20:34:58","54.8","51.8","89.6","29.96","327","0.1","2.3","0.05","0.00"
"20:39:56","54.6","51.7","90","29.96","327","0","0","0.05","0.00"
"20:44:58","54.4","51.5","90","29.97","327","0","0","0.05","0.00"
"20:49:56","54.1","51.2","90","29.97","327","0","0","0.05","0.00"
"20:54:58","53.7","50.8","90","29.97","327","0","0","0.05","0.00"
"20:59:56","53.4","50.8","91","29.97","327","0","0","0.05","0.00"
"21:04:58","53.1","50.6","91.2","29.97","327","0","0","0.05","0.00"
"21:09:56","52.7","50","90.5","29.97","327","0","0","0.05","0.00"
"21:14:58","52.4","49.9","91.6","29.97","327","0","0","0.05","0.00"
"21:19:56","52.3","50.1","92.4","29.97","327","0","0","0.05","0.00"
"21:24:59","52.2","50.2","93","29.97","327","0","0","0.05","0.00"
"21:29:57","52.1","50.1","93","29.97","327","0","0","0.05","0.00"
"21:34:59","51.8","49.7","92.5","29.97","327","0","0","0.05","0.00"
"21:39:58","51.3","49","91.7","29.97","327","0","0","0.05","0.00"
"21:44:56","51.2","49.3","93.3","29.98","327","0","0","0.05","0.00"
"21:49:58","51.2","49.5","93.7","29.98","327","0","0","0.05","0.00"
"21:54:56","51","49","93","29.98","327","0","0","0.05","0.00"
"21:59:59","50.6","48.7","93","29.98","327","0","0","0.05","0.00"
"22:04:56","50.4","48.6","93.2","29.98","327","0","0","0.05","0.00"
"22:09:58","50.3","48.6","93.7","29.98","327","0","0","0.05","0.00"
"22:14:57","50.1","48.2","93","29.98","327","0","0","0.05","0.00"
"22:19:59","49.9","48","93","29.98","327","0","0","0.05","0.00"
"22:24:57","49.6","47.7","93","29.98","327","0","0","0.05","0.00"
"22:29:59","49.3","47.4","93","29.98","327","0","0","0.05","0.00"
"22:34:57","49.1","47.2","93","29.98","327","0","0","0.05","0.00"
"22:39:59","49","47.2","93.9","29.98","327","0","0","0.05","0.00"
"22:44:57","48.8","47","93.5","29.98","327","0","0","0.05","0.00"
"22:49:59","48.6","47","94","29.98","327","0","0","0.05","0.00"
"22:54:57","48.4","46.8","94","29.98","327","0","0","0.05","0.00"
"22:59:59","48.4","46.9","94.6","29.98","327","0","0","0.05","0.00"
"23:04:57","48.4","47","95","29.98","327","0","0","0.05","0.00"
"23:09:59","48.3","46.8","94.3","29.98","327","0","0","0.05","0.00"
"23:14:57","47.9","46.1","93.4","29.99","327","0","0","0.05","0.00"
"23:19:59","47.6","46","94","29.99","327","0","0","0.05","0.00"
"23:24:57","47.5","45.9","94.1","29.99","327","0","0","0.05","0.00"
"23:29:56","47.4","45.9","94.4","29.99","327","0","0","0.05","0.00"
"23:34:58","47.2","45.6","94","29.99","327","0","0","0.05","0.00"
"23:39:56","46.9","45.3","94.1","29.99","327","0","0","0.05","0.00"
"23:44:59","46.9","45.5","95","29.99","327","0","0","0.05","0.00"
"23:49:57","46.9","45.5","95","29.98","327","0","0","0.05","0.00"
"23:54:59","47","45.7","95.5","29.98","327","0","0","0.05","0.00"
"23:59:58","47.2","46","95.6","29.98","327","0","0","0.05","0.00"
